Location: Austin
(30.3000°N, 97.7500°W)
Time: 12:01:08
(UTC-05:00)

SL-8 Rocket - Pass Details

Date: 08 April 2026
Orbit: 957 x 988 km, 82.9° (Epoch: 11 April)

Event Time Altitude Azimuth Distance (km) Brightness Sun altitude
Exits shadow 22:01:58 43° 51° (NE) 1,335 4.5 -26.9°
Drops below altitude 10° 22:06:32 10° 17° (NNE) 2,725 6.4 -27.8°
Sets 22:09:07 0° 13° (NNE) 3,680 7.2 -28.3°
